Regional Weather Roundup
Issued by NWS Northern Indiana

Home | Current Version | Previous Version | Graphics & Text | Print | Product List | Glossary On
Versions: 1 2 3 4 5 6 7 8 9 10 11 12 13 14 15 16 17 18 19 20 21 22 23 24 25 26 27 28 29 30 31 32 33 34 35 36 37 38 39 40 41 42 43 44 45 46 47 48 49 50
000
ASUS43 KIWX 280900
RWRIWX

KIWX WEATHER ROUNDUP
NATIONAL WEATHER SERVICE NORTHERN INDIANA
500 AM EDT FRI APR 28 2017

NOTE: "FAIR" INDICATES FEW OR NO CLOUDS BELOW 12,000 FEET WITH NO
SIGNIFICANT WEATHER AND/OR OBSTRUCTIONS TO VISIBILITY.

* THESE STATIONS ARE NOT UNDER NWS QUALITY CONTROL. THEY ALSO MAY NOT
  REPORT WEATHER SUCH AS PRECIPITATION OR FOG.

INZ001>027-281000-
NORTHERN INDIANA

CITY           SKY/WX    TMP DP  RH WIND       PRES   REMARKS
SOUTH BEND     CLEAR     41  39  93 S6        29.91R
GOSHEN         PTCLDY    44  38  79 S7        29.91R
MONTICELLO*    CLOUDY    46  40  80 E6        29.86F
ANGOLA*        CLEAR     43  39  87 SW3       29.92R
FORT WAYNE     MOCLDY    43  38  82 S6        29.94R
PERU/GRISSOM   CLOUDY    45  45  99 SE7       29.89F

$$
INZ028>050-281000-
CENTRAL INDIANA

CITY           SKY/WX    TMP DP  RH WIND       PRES   REMARKS
LAFAYETTE      CLOUDY    44  41  89 S6        29.86F
KOKOMO*        PTCLDY    45  43  93 E6        29.92F
MUNCIE*        PTCLDY    45  42  89 E3        29.94S
INDIANAPOLIS   CLOUDY    48  43  82 E7        29.90F

$$
MIZ043>046-050>051-056>058-064>065-071>073-077>080-281000-
SOUTHWEST LOWER MICHIGAN

CITY           SKY/WX    TMP DP  RH WIND       PRES   REMARKS
BATTLE CREEK   CLOUDY    44  36  73 SW7       29.91R
BENTON HARBOR  PTCLDY    40  36  86 CALM      29.90R
COLDWATER*     PTCLDY    41  36  82 SW3       29.92R
HILLSDALE*     PTCLDY    43  36  75 SW3       29.91R
HOLLAND        CLOUDY    45  36  70 SW13      29.89R
GRAND RAPIDS   CLOUDY    44  37  76 W13G21    29.88R
KALAMAZOO      CLOUDY    42  35  76 SW5       29.91R
STURGIS*       PTCLDY    40  37  86 S3        29.91R
THREE RIVERS*  FAIR      41  37  83 CALM      29.92R

$$
OHZ001>008-015>018-024>025-281000-
NORTHWEST OHIO

CITY           SKY/WX    TMP DP  RH WIND       PRES   REMARKS
DEFIANCE       CLEAR     41  37  86 S6        29.96R
FINDLAY        PTCLDY    45  39  79 SW5       29.96R
TOLEDO EXPRESS CLEAR     46  38  73 SW7       29.94R
TOLEDO METCALF CLEAR     48  39  71 SW6       29.96R
LIMA           PTCLDY    43  40  89 W7        29.98R

$$
AND FOR LAKE MICHIGAN COASTAL AND OPEN LAKE BUOY OBSERVATIONS

STATION/POSITION TEMP    WIND        PRES    VSBY  WAVE
                 AIR SEA DIR/SP/G                  HT/PER
                 (F)     (DEG/KT/KT) (MB)    (MI)  (FT/S)
CALUMET HARBOR    44     250/  1/  2 1011.5R
MICHIGAN CITY     44     200/  4/  5   N/A
BURNS HARBOR      47     190/ 10/ 14 1012.5S
SOUTH LAKE BUOY   42 41  250/ 12/ 14 1011.6          3/ 4
4 MI NW BRIDGMAN  46 48  210/  4/  6 1013.2R         2/ 4
MICHIGAN CITY     45 47                N/A           1/ 3

$$
&&




USA.gov is the U.S. government's official web portal to all federal, state and local government web resources and services.